User: anonymous   Login
Location: Unspecified
(0.0000°N, 0.0000°E)
Time: 20:20:29
(UTC+00:00)
Language:

STARLINK-3647 - Orbit

View from above orbital plane
View from above orbital plane
View from above satellite
View from above satellite

Ground track
Ground track

The orbit is defined by the following mean orbital elements,

1 51994U          26145.10603916 +.00000000 +00000-0 -51264-3 0 00007
2 51994  53.2127  36.0742 0001738  91.8576 268.2615 15.08880470    08
Epoch (UTC): 25 May 2026 02:32:41
Eccentricity: 0.0001738
inclination: 53.2127°
perigee height: 538 km
apogee height: 541 km
right ascension of ascending node: 36.0742°
argument of perigee: 91.8576°
revolutions per day: 15.08880470
mean anomaly at epoch: 268.2615°

The dashed part of the orbit path shows where the satellite is in the earth's shadow,  

DLR